This is the latest recevied weather packets stored in our database for station/object DK8DX-13. If no packets are shown the sender has not sent any weather packets the latest 1 day(s).
| Time | Temp. | Humidity | Pressure | Rain* | Wind** | Luminosity | Snow |
|---|---|---|---|---|---|---|---|
| 1778040912 | 8.33° C | 94% | 1006.2 hPa | 1.02 mm | - | - | - |
| 1778040617 | 8.33° C | 94% | 1006.1 hPa | 1.02 mm | - | - | - |
| 1778040342 | 8.33° C | 94% | 1006.2 hPa | 1.02 mm | - | - | - |
| 1778040067 | 8.33° C | 94% | 1006.2 hPa | 1.02 mm | - | - | - |
| 1778039792 | 8.89° C | 94% | 1006.2 hPa | 1.02 mm | - | - | - |
| 1778039517 | 8.89° C | 94% | 1006.3 hPa | 1.02 mm | - | - | - |
| 1778039244 | 8.89° C | 94% | 1006.2 hPa | 1.02 mm | - | - | - |
| 1778038977 | 8.89° C | 94% | 1006.3 hPa | 1.02 mm | - | - | - |
| 1778038722 | 8.89° C | 94% | 1006.3 hPa | 1.27 mm | - | - | - |
| 1778038452 | 8.89° C | 94% | 1006.3 hPa | 1.27 mm | - | - | - |
| 1778038186 | 8.89° C | 94% | 1006.3 hPa | 1.52 mm | - | - | - |
| 1778037927 | 8.89° C | 94% | 1006.3 hPa | 1.52 mm | - | - | - |
| 1778037637 | 8.89° C | 94% | 1006.3 hPa | 1.52 mm | - | - | - |
| 1778037367 | 8.89° C | 94% | 1006.3 hPa | 2.03 mm | - | - | - |
| 1778037082 | 8.89° C | 94% | 1006.3 hPa | 2.29 mm | - | - | - |
| 1778036837 | 8.89° C | 94% | 1006.5 hPa | 2.54 mm | - | - | - |
| 1778036573 | 8.89° C | 94% | 1006.5 hPa | 2.03 mm | - | - | - |
| 1778036287 | 8.89° C | 94% | 1006.5 hPa | 1.78 mm | - | - | - |
| 1778036008 | 8.89° C | 94% | 1006.6 hPa | 1.78 mm | - | - | - |
| 1778035752 | 8.89° C | 94% | 1006.7 hPa | 2.03 mm | - | - | - |
| 1778035497 | 9.44° C | 94% | 1006.6 hPa | 2.54 mm | - | - | - |
| 1778035222 | 9.44° C | 94% | 1006.7 hPa | 2.79 mm | - | - | - |
| 1778034962 | 9.44° C | 94% | 1006.7 hPa | 2.79 mm | - | - | - |
| 1778034712 | 9.44° C | 94% | 1006.7 hPa | 2.79 mm | - | - | - |
| 1778034447 | 9.44° C | 93% | 1006.7 hPa | 2.79 mm | - | - | - |
* Rain latest hour (hover to see other rain measurements)
** Current wind speed in m/s (hover to see current wind gust speed)